Regional Weather Roundup
Issued by NWS Northern Indiana

Home | Current Version | Previous Version | Text Only | Print | Product List | Glossary On
Versions: 1 2 3 4 5 6 7 8 9 10 11 12 13 14 15 16 17 18 19 20 21 22 23 24 25 26 27 28 29 30 31 32 33 34 35 36 37 38 39 40 41 42 43 44 45 46 47 48 49 50
833
ASUS43 KIWX 220210
RWRIWX

KIWX WEATHER ROUNDUP
NATIONAL WEATHER SERVICE NORTHERN INDIANA
1000 PM EDT MON AUG 21 2017

NOTE: "FAIR" INDICATES FEW OR NO CLOUDS BELOW 12,000 FEET WITH NO
SIGNIFICANT WEATHER AND/OR OBSTRUCTIONS TO VISIBILITY.

* THESE STATIONS ARE NOT UNDER NWS QUALITY CONTROL. THEY ALSO MAY NOT
  REPORT WEATHER SUCH AS PRECIPITATION OR FOG.

INZ001>027-220300-
NORTHERN INDIANA

CITY           SKY/WX    TMP DP  RH WIND       PRES   REMARKS
GARY*          PTCLDY    79  72  78 SW5       29.97F
VALPARAISO     PTCLDY    78  72  81 S6        29.99F
MICHIGAN CITY* PTCLDY    73  72  94 CALM      29.99F
LAPORTE*       PTCLDY    76  71  86 S3        30.00F
KNOX*          CLEAR     73  72  94 SW5       30.00S
SOUTH BEND     PTCLDY    77  73  87 S5        30.00F
GOSHEN         PTCLDY    76  70  82 S7        30.01S
MONTICELLO*    CLOUDY    75  74  95 S5        30.01F
LOGANSPORT*    CLOUDY    73  68  83 S5        30.04F
ROCHESTER*     CLOUDY    79  70  73 S8        30.01F
WARSAW*        CLEAR     77  73  88 CALM      30.02S
AUBURN*        PTCLDY    77  68  73 SW5       30.03F
FORT WAYNE     MOCLDY    74  68  81 SW8       30.04S
HUNTINGTON*    CLEAR     74  71  88 S3        30.03F
PERU/GRISSOM   CLOUDY    75  70  86 SW7       30.04S

$$
INZ028>050-220300-
CENTRAL INDIANA

CITY           SKY/WX    TMP DP  RH WIND       PRES   REMARKS
LAFAYETTE      CLEAR     75  71  87 S6        30.02F
KOKOMO*        PTCLDY    74  70  87 SW7       30.05F
MUNCIE*        CLOUDY    77  69  76 SW6       30.07S
INDIANAPOLIS   CLOUDY    75  72  90 S7        30.05F

$$
MIZ043>046-050>051-056>058-064>065-071>073-077>080-220300-
SOUTHWEST LOWER MICHIGAN

CITY           SKY/WX    TMP DP  RH WIND       PRES   REMARKS
BATTLE CREEK   LGT RAIN  71  69  93 N13G24    30.04R
BENTON HARBOR  CLOUDY    78  71  79 SE5       29.97F
COLDWATER*     MOCLDY    77  69  75 S6        30.00F
HILLSDALE*     CLOUDY    75  68  78 SW7       30.02S
HOLLAND        CLOUDY    71  68  90 SE8       29.97F
GRAND RAPIDS   CLOUDY    74  68  81 S14G22    29.99R
KALAMAZOO      HVY RAIN  72  66  81 N8        30.02R
STURGIS*       MOCLDY    75  70  84 SW5       30.00F
THREE RIVERS*  RAIN      80  70  71 W6        30.02R

$$
OHZ001>008-015>018-024>025-220300-
NORTHWEST OHIO

CITY           SKY/WX    TMP DP  RH WIND       PRES   REMARKS
WAUSEON*         N/A     79  72  78 SW6       30.01S
DEFIANCE       PTCLDY    77  71  82 S8        30.01F
FINDLAY        PTCLDY    75  68  78 S7        30.03S
TOLEDO EXPRESS PTCLDY    78  73  84 SW6       30.00F
TOLEDO METCALF PTCLDY    79  74  84 S8        30.02S
LIMA           CLOUDY    75  72  90 S6        30.06S

$$
AND FOR LAKE MICHIGAN COASTAL AND OPEN LAKE BUOY OBSERVATIONS

STATION/POSITION TEMP    WIND        PRES    VSBY  WAVE
                 AIR SEA DIR/SP/G                  HT/PER
                 (F)     (DEG/KT/KT) (MB)    (MI)  (FT/S)
CALUMET HARBOR    78     190/  5/  9 1014.1F
MICHIGAN CITY     79     180/  8/  9   N/A
BURNS HARBOR      79     190/  8/ 10 1015.2F
SAINT JOSEPH      80     190/  5/ 13 1014.9
SOUTH LAKE BUOY   75 72  200/ 12/ 14 1013.5F         1/ 3
4 MI NW BRIDGMAN  77 74  190/  8/ 10 1014.3          1
MICHIGAN CITY     77 75  180/  6/  8   N/A           1/ 2

$$
&&




USA.gov is the U.S. government's official web portal to all federal, state and local government web resources and services.